{"data":{"norad_id":27954,"epoch":"2026-05-25T04:06:38.661120Z","epoch_age_seconds":63793,"freshness":"FRESH","line1":"1 27954U 03044A   26145.17128080  .00000131  00000+0  00000+0 0  9996","line2":"2 27954   1.3603  84.1301 0002158 337.6265  92.6703  1.00272939 46344","mean_motion":1.00272939,"eccentricity":0.0002158,"inclination_deg":1.3603,"raan_deg":84.1301,"arg_perigee_deg":337.6265,"mean_anomaly_deg":92.6703,"bstar":0,"rev_number":4634,"period_min":1436.080376581,"perigee_km":35777.172376857,"apogee_km":35795.370535547,"semimajor_km":42164.408456202,"source":"CELESTRAK","updated_at":"2026-05-25T13:38:14.323758Z"}}